Weather History for Greenwood, SC

Change the Weather History Date:

Tuesday, January 22, 2013

  Actual Average (KAND) Record (KAND)
Temperature  
Mean Temperature 40 °F -  
Max Temperature 48 °F 51 °F 70 °F (1974)
Min Temperature 33 °F 32 °F 10 °F (1961)
Degree Days  
Heating Degree Days 24    
Moisture  
Dew Point 14 °F    
Average Humidity 36    
Maximum Humidity 46    
Minimum Humidity 23    
Precipitation  
Precipitation 0.00 in - - ()
Sea Level Pressure  
Sea Level Pressure 30.20 in    
Wind  
Wind Speed 8 mph (WSW)    
Max Wind Speed 12 mph    
Max Gust Speed 23 mph    
Visibility 10 miles    
Events      
Averages and records for this station are not official NWS values.
T = Trace of Precipitation, MM = Missing Value Source: NWS Daily Summary

Daily Weather History Graph

Daily Weather History Graph

Search for Another Location

Airport:

Trip Planner

Search our weather history database for the weather conditions in past years. The results will help you decide how hot, cold, wet, or windy it might be!

Date:

Astronomy

Jan. 22, 2013 Rise Set
Actual Time 7:31 AM EST 5:49 PM EST
Civil Twilight 7:05 AM EST 6:15 PM EST
Nautical Twilight 6:34 AM EST 6:46 PM EST
Astronomical Twilight 6:04 AM EST 7:16 PM EST
Moon 2:12 PM EST (1/22) 3:50 AM EST (1/22)
Length of Visible Light 11h 10m
Length of Day
10h 17m
Waxing Gibbous, 82% of the Moon is Illuminated
Jan 22
Waxing Gibbous
Jan 26
Full
Feb 3
Last Quarter
Feb 10
New
Feb 17
First Quarter

Hourly Weather History & Observations

Time (EST) Temp. Windchill Dew Point Humidity Pressure Visibility Wind Dir Wind Speed Gust Speed Precip Events Conditions
12:56 AM 39.9 °F 34.5 °F 18.0 °F 41% 30.08 in 10.0 mi WSW 8.1 mph - N/A   Clear
1:56 AM 39.0 °F 33.4 °F 17.1 °F 41% 30.09 in 10.0 mi WSW 8.1 mph 17.3 mph N/A   Clear
2:56 AM 37.9 °F 31.5 °F 16.0 °F 41% 30.10 in 10.0 mi WSW 9.2 mph - N/A   Clear
3:56 AM 37.0 °F 31.0 °F 15.1 °F 41% 30.09 in 10.0 mi West 8.1 mph - N/A   Clear
4:56 AM 35.1 °F 27.9 °F 15.1 °F 44% 30.11 in 10.0 mi WSW 9.2 mph - N/A   Clear
5:56 AM 34.0 °F 26.0 °F 15.1 °F 46% 30.12 in 10.0 mi WSW 10.4 mph - N/A   Clear
6:56 AM 33.1 °F 26.1 °F 14.0 °F 46% 30.15 in 10.0 mi WSW 8.1 mph - 0.00 in   Clear
7:56 AM 33.1 °F - 14.0 °F 46% 30.19 in 10.0 mi Calm Calm - N/A   Clear
8:56 AM 35.1 °F 31.0 °F 14.0 °F 42% 30.22 in 10.0 mi West 4.6 mph - N/A   Clear
9:56 AM 37.9 °F 32.7 °F 12.9 °F 36% 30.24 in 10.0 mi Variable 6.9 mph - N/A   Clear
10:56 AM 42.1 °F 37.1 °F 12.9 °F 31% 30.25 in 10.0 mi WNW 8.1 mph - N/A   Clear
11:56 AM 43.0 °F 37.7 °F 12.0 °F 28% 30.25 in 10.0 mi WSW 9.2 mph - N/A   Clear
12:56 PM 46.0 °F 41.0 °F 14.0 °F 28% 30.22 in 10.0 mi WSW 10.4 mph 16.1 mph N/A   Clear
1:56 PM 46.9 °F - 10.9 °F 23% 30.21 in 10.0 mi WNW 11.5 mph 23.0 mph N/A   Clear
2:56 PM 46.9 °F - 10.9 °F 23% 30.20 in 10.0 mi West 11.5 mph 19.6 mph N/A   Clear
3:56 PM 48.0 °F - 12.0 °F 24% 30.20 in 10.0 mi West 9.2 mph - N/A   Clear
4:56 PM 46.9 °F - 12.0 °F 24% 30.21 in 10.0 mi West 10.4 mph - N/A   Clear
5:56 PM 43.0 °F 38.2 °F 14.0 °F 31% 30.22 in 10.0 mi WSW 8.1 mph - N/A   Clear
6:56 PM 39.9 °F 35.1 °F 14.0 °F 35% 30.23 in 10.0 mi WSW 6.9 mph - N/A   Clear
7:56 PM 39.0 °F 34.0 °F 15.1 °F 38% 30.24 in 10.0 mi WSW 6.9 mph - N/A   Clear
8:56 PM 39.0 °F 33.4 °F 16.0 °F 39% 30.26 in 10.0 mi WSW 8.1 mph - N/A   Clear
9:56 PM 37.9 °F 31.5 °F 15.1 °F 39% 30.27 in 10.0 mi WSW 9.2 mph - N/A   Clear
10:56 PM 36.0 °F 30.3 °F 14.0 °F 41% 30.28 in 10.0 mi West 6.9 mph - N/A   Clear
11:56 PM 35.1 °F 30.1 °F 12.0 °F 39% 30.29 in 10.0 mi WSW 5.8 mph - N/A   Clear